Location: Unspecified
(44.0704°N, 88.6889°W)
Time: 23:10:41
(UTC+02:00)

Okean 3 - Visible Passes

Search period start: 01 October 2020 00:00
Search period end: 11 October 2020 00:00
Orbit: 576 x 601 km, 82.5° (Epoch: 01 October)

Date Brightness Start Highest point End Pass type
(mag) Time Alt. Az. Time Alt. Az. Time Alt. Az.
01 Oct 5.3 12:00:50 10° SSE 12:04:38 32° E 12:08:26 10° NNE visible
02 Oct 4.5 12:08:15 10° SSE 12:12:21 47° E 12:16:27 10° NNE visible
03 Oct 3.7 12:15:51 10° S 12:20:06 71° E 12:24:21 10° NNE visible
04 Oct 3.3 12:23:36 10° SSW 12:27:53 78° W 12:32:10 10° N visible
05 Oct 6.5 10:56:45 10° ESE 10:58:56 14° E 11:01:09 10° NE visible
05 Oct 3.6 12:32:06 13° SSW 12:35:42 52° WNW 12:39:53 10° N visible
06 Oct 5.9 11:04:39 15° ESE 11:06:35 20° E 11:09:42 10° NE visible
06 Oct 4.1 12:41:15 20° SW 12:43:34 35° WNW 12:47:29 10° N visible
07 Oct 5.3 11:13:34 27° ESE 11:14:15 29° E 11:17:55 10° NNE visible
07 Oct 4.5 12:50:08 21° W 12:51:27 25° WNW 12:54:58 10° NNW visible
08 Oct 4.7 11:22:18 41° E 11:22:18 41° E 11:25:58 10° NNE visible
08 Oct 4.9 12:58:52 17° W 12:59:23 17° WNW 13:02:16 10° NNW visible
09 Oct 4.5 11:30:53 43° NE 11:30:53 43° NE 11:33:53 10° NNE visible
09 Oct 5.4 13:07:27 12° WNW 13:07:27 12° WNW 13:09:09 10° NW visible
10 Oct 4.8 11:39:21 32° N 11:39:21 32° N 11:41:43 10° N visible
